Location: Clairmont
(55.2667°N, 118.8000°W)
Time: 22:44:23
(UTC+00:00)

Envisat - Pass Details

Date: 04 November 2020
Orbit: 764 x 766 km, 98.1° (Epoch: 03 December)

Event Time Altitude Azimuth Distance (km) Brightness Sun altitude
Rises 01:38:52 0° 190° (S) 3,224 6.5 -12.7°
Reaches altitude 10° 01:41:21 10° 200° (SSW) 2,302 5.9 -13.0°
Maximum altitude 01:45:58 35° 265° (W) 1,237 4.8 -13.7°
Drops below altitude 10° 01:50:38 10° 331° (NNW) 2,317 5.8 -14.3°
Sets 01:53:09 0° 340° (NNW) 3,248 6.4 -14.7°
